^^
Station Historical Data
Daily Summary for April 28, 2017 Units:  English    Metric   Both
« Previous Day
Next Day »
Daily Weekly Monthly Yearly Custom
  High: Low: Average:
Temperature: 83.6 °F 57.2 °F 68.6 °F
Dew Point: 64.3 °F 46.1 °F 56.2 °F
Humidity: 98% 29% 70%
Wind Speed: 8.0mph 0.0mph 1.8mph
Wind Gust: 18.0mph - -
Wind- - SSW
Pressure: 30.05 in 29.88 in -
Precipitation: 0.01 in    
Historical Graphs
 
 
Tabular Data for April 28, 2017
Time Temperature Dew Point Pressure Wind Wind Speed Wind Gust Humidity Rainfall Rate (Hourly) Conditions
00:00 57.9 °F 57.1 °F 29.90 in Calm   2.0 mph 97% 0.00 in +DZ
00:15 57.9 °F 57.1 °F 29.90 in Calm   3.0 mph 97% 0.00 in +DZ
00:30 57.8 °F 57.0 °F 29.90 in Calm   2.0 mph 97% 0.00 in +DZ
00:45 57.6 °F 56.8 °F 29.90 in Calm   3.0 mph 97% 0.00 in +DZ
01:00 57.4 °F 56.6 °F 29.88 in Calm   2.0 mph 97% 0.00 in +DZ
02:15 57.3 °F 56.5 °F 29.88 in Calm   1.0 mph 97% 0.00 in +DZ
02:30 57.3 °F 56.5 °F 29.88 in Calm   2.0 mph 97% 0.00 in +DZ
02:45 57.4 °F 56.8 °F 29.89 in Calm   3.0 mph 98% 0.00 in +DZ
03:00 57.4 °F 56.8 °F 29.88 in ENE 1.0 mph 2.0 mph 98% 0.00 in +DZ
03:15 57.3 °F 56.7 °F 29.88 in Calm   3.0 mph 98% 0.00 in +DZ
03:30 57.3 °F 56.8 °F 29.88 in Calm   1.0 mph 98% 0.00 in +DZ
03:45 57.3 °F 56.7 °F 29.89 in Calm   2.0 mph 98% 0.00 in +DZ
04:00 57.3 °F 56.7 °F 29.88 in Calm   1.0 mph 98% 0.01 in +DZ
04:15 57.2 °F 56.7 °F 29.89 in Calm   2.0 mph 98% 0.00 in +DZ
04:30 57.4 °F 56.8 °F 29.90 in Calm   2.0 mph 98% 0.00 in +DZ
04:45 57.2 °F 56.7 °F 29.90 in Calm   1.0 mph 98% 0.00 in +DZ
05:00 57.2 °F 56.6 °F 29.91 in Calm   1.0 mph 98% 0.00 in +DZ
05:15 57.2 °F 56.7 °F 29.92 in Calm   1.0 mph 98% 0.00 in CLR
05:30 57.2 °F 56.6 °F 29.92 in Calm   1.0 mph 98% 0.00 in CLR
05:45 57.2 °F 56.6 °F 29.92 in Calm     98% 0.00 in CLR
06:00 57.2 °F 56.6 °F 29.93 in Calm     98% 0.00 in CLR
06:15 57.3 °F 56.7 °F 29.94 in Calm   1.0 mph 98% 0.00 in CLR
06:30 57.4 °F 56.8 °F 29.94 in Calm   3.0 mph 98% 0.00 in CLR
06:45 57.5 °F 56.9 °F 29.94 in Calm     98% 0.00 in CLR
07:00 57.6 °F 57.0 °F 29.95 in Calm     98% 0.00 in CLR
07:15 57.8 °F 57.2 °F 29.95 in Calm     98% 0.00 in CLR
07:30 58.3 °F 57.7 °F 29.95 in Calm   2.0 mph 98% 0.00 in CLR
07:45 58.7 °F 58.1 °F 29.96 in Calm   1.0 mph 98% 0.00 in CLR
08:00 58.5 °F 58.0 °F 29.97 in Calm   1.0 mph 98% 0.00 in CLR
08:15 59.1 °F 58.5 °F 29.97 in Calm   1.0 mph 98% 0.00 in BKN
08:30 59.6 °F 59.0 °F 29.99 in Calm   3.0 mph 98% 0.00 in BKN
08:45 59.5 °F 58.9 °F 29.98 in SW 1.0 mph 5.0 mph 98% 0.00 in BKN
09:00 59.6 °F 59.1 °F 29.98 in WSW 1.0 mph 4.0 mph 98% 0.00 in BKN
09:15 60.1 °F 59.5 °F 29.99 in SW 1.0 mph 3.0 mph 98% 0.00 in CLR
09:30 60.3 °F 59.4 °F 29.99 in WSW 1.0 mph 5.0 mph 97% 0.00 in CLR
09:45 60.5 °F 59.6 °F 29.99 in West 1.0 mph 4.0 mph 97% 0.00 in CLR
10:00 61.1 °F 60.2 °F 30.00 in West 2.0 mph 3.0 mph 97% 0.00 in CLR
10:15 61.5 °F 60.4 °F 30.00 in Calm   5.0 mph 96% 0.00 in BKN
10:30 62.1 °F 60.4 °F 30.00 in WNW 1.0 mph 4.0 mph 94% 0.00 in BKN
10:45 63.3 °F 61.6 °F 30.00 in WSW 1.0 mph 3.0 mph 94% 0.00 in BKN
11:00 65.7 °F 62.4 °F 30.00 in Calm   3.0 mph 89% 0.00 in BKN
11:15 67.1 °F 63.1 °F 30.00 in WSW 1.0 mph 5.0 mph 87% 0.00 in FEW
11:30 70.2 °F 63.4 °F 30.00 in SSW 3.0 mph 6.0 mph 79% 0.00 in FEW
11:45 69.9 °F 63.8 °F 30.00 in WSW 2.0 mph 6.0 mph 81% 0.00 in FEW
12:00 71.2 °F 64.0 °F 30.00 in WSW 2.0 mph 5.0 mph 78% 0.00 in FEW
12:15 72.9 °F 63.3 °F 30.01 in South 3.0 mph 6.0 mph 72% 0.00 in FEW
12:30 73.9 °F 64.3 °F 30.00 in Calm   6.0 mph 72% 0.00 in FEW
12:45 75.6 °F 63.8 °F 30.01 in SW 3.0 mph 7.0 mph 67% 0.00 in FEW
13:00 76.2 °F 63.1 °F 30.00 in West 3.0 mph 7.0 mph 64% 0.00 in FEW
13:15 77.3 °F 62.8 °F 30.00 in WSW 3.0 mph 9.0 mph 61% 0.00 in FEW
13:30 78.7 °F 61.2 °F 29.99 in SW 5.0 mph 12.0 mph 55% 0.00 in FEW
13:45 79.9 °F 61.3 °F 29.99 in SSW 2.0 mph 9.0 mph 53% 0.00 in FEW
14:00 80.2 °F 60.4 °F 29.98 in South 3.0 mph 12.0 mph 51% 0.00 in FEW
14:15 81.1 °F 61.8 °F 29.98 in WSW 3.0 mph 9.0 mph 52% 0.00 in FEW
14:30 81.7 °F 60.1 °F 29.98 in SSW 5.0 mph 9.0 mph 48% 0.00 in FEW
14:45 81.7 °F 59.5 °F 29.98 in SSW 3.0 mph 12.0 mph 47% 0.00 in FEW
15:00 82.1 °F 59.3 °F 29.98 in SSE 3.0 mph 13.0 mph 46% 0.00 in FEW
15:15 82.4 °F 58.3 °F 29.98 in SSW 6.0 mph 16.0 mph 44% 0.00 in FEW
15:30 82.5 °F 56.4 °F 29.98 in SSW 8.0 mph 13.0 mph 41% 0.00 in FEW
15:45 83.2 °F 55.7 °F 29.98 in South 3.0 mph 13.0 mph 39% 0.00 in FEW
16:00 83.6 °F 55.3 °F 29.97 in SSW 7.0 mph 14.0 mph 38% 0.00 in FEW
16:15 83.3 °F 55.8 °F 29.97 in SW 2.0 mph 14.0 mph 39% 0.00 in FEW
16:30 83.5 °F 53.0 °F 29.97 in SSW 8.0 mph 14.0 mph 35% 0.00 in FEW
16:45 83.3 °F 52.0 °F 29.97 in WSW 7.0 mph 18.0 mph 34% 0.00 in FEW
17:00 83.5 °F 50.5 °F 29.98 in SW 8.0 mph 15.0 mph 32% 0.00 in FEW
17:15 83.2 °F 47.6 °F 29.97 in SSW 8.0 mph 17.0 mph 29% 0.00 in CLR
17:30 82.8 °F 47.3 °F 29.97 in SSW 3.0 mph 15.0 mph 29% 0.00 in CLR
17:45 83.4 °F 47.8 °F 29.97 in SSW 5.0 mph 12.0 mph 29% 0.00 in CLR
18:00 83.4 °F 48.7 °F 29.97 in SSW 3.0 mph 13.0 mph 30% 0.00 in CLR
18:15 81.5 °F 54.8 °F 29.98 in SSW 5.0 mph 13.0 mph 40% 0.00 in CLR
18:30 80.4 °F 57.1 °F 29.98 in SSW 3.0 mph 12.0 mph 45% 0.00 in CLR
18:45 79.0 °F 56.5 °F 29.99 in SSW 3.0 mph 10.0 mph 46% 0.00 in CLR
19:00 78.0 °F 55.6 °F 29.98 in SSW 3.0 mph 7.0 mph 46% 0.00 in CLR
19:15 76.9 °F 55.7 °F 29.99 in SSW 5.0 mph 7.0 mph 48% 0.00 in CLR
19:30 75.7 °F 55.7 °F 29.99 in SSW 1.0 mph 8.0 mph 50% 0.00 in CLR
19:45 74.7 °F 55.9 °F 30.00 in South 2.0 mph 8.0 mph 52% 0.00 in CLR
20:00 73.7 °F 55.5 °F 30.00 in South 2.0 mph 6.0 mph 53% 0.00 in CLR
20:15 72.8 °F 55.7 °F 30.01 in SSE 3.0 mph 6.0 mph 55% 0.00 in CLR
20:30 71.9 °F 55.3 °F 30.02 in Calm   4.0 mph 56% 0.00 in CLR
20:45 73.1 °F 52.8 °F 30.02 in SSW 1.0 mph 6.0 mph 49% 0.00 in CLR
21:00 73.9 °F 49.4 °F 30.03 in SSW 3.0 mph 6.0 mph 42% 0.00 in CLR
21:15 73.5 °F 49.0 °F 30.03 in SW 3.0 mph 6.0 mph 42% 0.00 in CLR
21:30 73.3 °F 47.5 °F 30.04 in SSW 1.0 mph 5.0 mph 40% 0.00 in CLR
21:45 73.3 °F 46.1 °F 30.05 in SSW 1.0 mph 5.0 mph 38% 0.00 in CLR
22:00 72.8 °F 46.4 °F 30.05 in SSW 2.0 mph 4.0 mph 39% 0.00 in CLR
22:15 72.6 °F 46.8 °F 30.05 in Calm   4.0 mph 40% 0.00 in CLR
22:30 71.5 °F 47.2 °F 30.04 in SSW 1.0 mph 3.0 mph 42% 0.00 in CLR
22:45 70.4 °F 47.4 °F 30.04 in Calm   1.0 mph 44% 0.00 in CLR
23:00 68.9 °F 47.3 °F 30.04 in Calm   1.0 mph 46% 0.00 in CLR
23:15 68.8 °F 47.2 °F 30.04 in Calm   1.0 mph 46% 0.00 in CLR
23:30 68.8 °F 47.7 °F 30.04 in Calm   1.0 mph 47% 0.00 in CLR
23:45 68.8 °F 48.3 °F 30.05 in Calm   1.0 mph 48% 0.00 in CLR
TarryTown NY Weather
Compliments of Weather Underground - 1.5 mb